Weather Roundup
Issued by NWS Chicago, IL

Home | Current Version | Previous Version | Text Only | Print | Product List | Glossary Off
Versions: 1 2 3 4 5 6 7 8 9 10 11 12 13 14 15 16 17 18 19 20 21 22 23 24 25 26 27 28 29 30 31 32 33 34 35 36 37 38 39 40 41 42 43 44 45 46 47 48 49 50

000
NZUS59 KLOT 130000
HRRLOT

CHICAGO AREA WEATHER ROUNDUP
NATIONAL WEATHER SERVICE CHICAGO/ROMEOVILLE IL
700 PM CDT SAT JUL 12 2014

NOTE: "FAIR" INDICATES FEW OR NO CLOUDS BELOW 12,000 FEET WITH NO
SIGNIFICANT WEATHER AND/OR OBSTRUCTIONS TO VISIBILITY.

* THESE STATIONS ARE NOT UNDER NWS QUALITY CONTROL. THEY ALSO MAY NOT
  REPORT WEATHER SUCH AS PRECIPITATION OR FOG.

ILZ005-006-012>014-019>023-130100-
NORTHEAST ILLINOIS

CITY           SKY/WX    TMP DP  RH WIND       PRES   REMARKS
OHARE          CLOUDY    79  70  74 SW3       29.93F HX  82
6HR MIN TEMP:  76; 6HR MAX TEMP:  80;

MIDWAY         CLOUDY    81  74  79 SW8       29.93F HX  86
6HR MIN TEMP:  78; 6HR MAX TEMP:  81;

AURORA         CLOUDY    80  73  79 CALM      29.93F HX  84
6HR MIN TEMP:  76; 6HR MAX TEMP:  80;

LANSING*       CLOUDY    77  72  83 SW8       29.95F
WAUKEGAN       CLOUDY    78  70  76 S6        29.92F HX  80
6HR MIN TEMP:  75; 6HR MAX TEMP:  80;

DUPAGE AIRPORT CLOUDY    79  73  82 S3        29.93F HX  82
6HR MIN TEMP:  77; 6HR MAX TEMP:  80;

WHEELING       CLOUDY    81  71  71 W5        29.94F HX  85
6HR MIN TEMP:  76; 6HR MAX TEMP:  81;

NORTHERLY IS     N/A     78  71  79 W5          N/A  HX  80
$$

WIZ051-052-058>065-066-070>072-130100-
SOUTHEAST WISCONSIN

CITY           SKY/WX    TMP DP  RH WIND       PRES   REMARKS
MILWAUKEE      LGT RAIN  75  71  87 S6        29.91F
6HR MIN TEMP:  75; 6HR MAX TEMP:  77; 6HR PCP:  0.01;

KENOSHA*       CLOUDY    77  72  84 CALM      29.92F
RACINE*        CLOUDY    75  72  90 SW3       29.93F
WAUKESHA       CLOUDY    72  70  94 SW7       29.93F FOG
$$

INZ001>003-010>013-019-020-130100-
NORTHWEST INDIANA

CITY           SKY/WX    TMP DP  RH WIND       PRES   REMARKS
GARY*          CLOUDY    79  73  83 SW9       29.95F HX  82
MICHIGAN CITY* NOT AVBL
RENSSELAER*    NOT AVBL
VALPARAISO     CLOUDY    77  71  82 S10       29.97F
$$

LMZ740>746-130100-
SOUTHERN LAKE MICHIGAN

STATION/POSITION TIME  SKY/WX   TEMP WIND        PRES    VSBY
                                AIR  DIR/SP/G
                 (UTC)          (F)  (DEG/KT/KT) (MB)    (MI)
HARRISON CRIB    2300            76  210/ 10/ 12   N/A
BURNHAM HARBOR   0000            78  260/  4/ 11   N/A
CALUMET HARBOR   2300            78  210/  5/  9 1014.8F
BURNS HARBOR     2300            77  200/ 12/ 19 1015.2S
MICHIGAN CITY    2300            77  180/ 11/ 13   N/A
$$

ABBREVIATIONS USED IN REMARKS
   TC - TEMPERATURE IN CELSIUS
  WCI - WIND CHILL INDEX
   HX - HEAT INDEX
  VSB - VISIBILITY
$$


USA.gov is the U.S. government's official web portal to all federal, state and local government web resources and services.